Content
SEND FEEDBACK

Daily
Averages
Monthly
Summary
United Kingdom

NEWTOWN, ENGLAND


Home > Europe > United Kingdom > England
Elevation: 36 feet     Latitude: 50 46N     Longitude: 001 49W

WEATHER
 
SELECT A DAY
Number of Records: 252,671;   Date Range: 7/1/96 - 7/26/14
 
SHARE

PRINT THIS DATA

[ ← Previous Day ]
WEATHER ALMANAC - OCTOBER 8, 2013
[ Next Day → ]
[ °C ]   °F
We're sorry. There is no daily almanac available for Newtown, England on October 8, 2013.
WEATHER BY HOUR - OCTOBER 8, 2013
[ °C ]   °F
Local TimeTemperatureDewpointHumidityBarometerVisibilityWind DirectionWind SpeedGust SpeedPrecipitationEventsConditions
1:50 AM59.0 °F59.0 °F100 %30.27 in6.2 miWest (270°)6.9 mphOvercast
2:20 AM59.0 °F57.2 °F94 %30.27 in6.2 miVariable2.3 mphScattered Clouds
2:50 AM57.2 °F55.4 °F94 %30.27 in4.3 miVariable1.2 mphMostly Cloudy
4:50 AM57.2 °F57.2 °F100 %30.27 in4.3 miWest (260°)1.2 mphMostly Cloudy
5:20 AM59.0 °F57.2 °F94 %30.27 in3.1 miWest (260°)4.6 mphOvercast
5:50 AM59.0 °F57.2 °F94 %30.27 in3.1 miWest (260°)5.8 mphOvercast
6:20 AM59.0 °F57.2 °F94 %30.27 in3.1 miWest (260°)5.8 mphOvercast
6:50 AM57.0 °F56.0 °F95 %30.28 in3.0 miWSW (240°)4.6 mphMist
6:50 AM57.2 °F55.4 °F94 %30.27 in3.1 miWSW (250°)4.6 mphPartly Cloudy
7:20 AM55.4 °F55.4 °F100 %30.27 in3.1 miWSW (250°)6.9 mphPartly Cloudy
7:50 AM55.4 °F55.4 °F100 %30.27 inNW (320°)5.8 mphFogMist
8:20 AM57.2 °F55.4 °F94 %30.27 in0.7 miNorth (360°)3.5 mphScattered Clouds
8:50 AM57.2 °F57.2 °F100 %30.30 in1.2 miWNW (290°)4.6 mphMostly Cloudy
9:20 AM57.2 °F57.2 °F100 %30.30 inWest (260°)6.9 mphMist
9:50 AM59.0 °F56.0 °F88 %30.32 in7.0 miWest (270°)3.5 mphScattered Clouds
9:50 AM59.0 °F57.2 °F94 %30.30 in6.2 miWest (280°)3.5 mphScattered Clouds
10:20 AM60.8 °F57.2 °F88 %30.30 in6.2 miVariable2.3 mphScattered Clouds
10:50 AM62.6 °F55.4 °F77 %30.30 in6.2 miVariable3.5 mphScattered Clouds
11:20 AM64.4 °F57.2 °F77 %30.30 in6.2 miWSW (250°)3.5 mphScattered Clouds
11:50 AM64.4 °F57.2 °F77 %30.30 in6.2 miWest (280°)4.6 mphScattered Clouds
12:20 PM64.4 °F57.2 °F77 %30.30 in6.2 miWNW (300°)4.6 mphScattered Clouds
12:50 PM67.0 °F58.0 °F64 %30.29 in12.0 miWSW (250°)5.8 mphMostly Cloudy
12:50 PM68.0 °F57.2 °F68 %30.27 in6.2 miWSW (250°)5.8 mphMostly Cloudy
1:20 PM68.0 °F57.2 °F68 %30.27 in6.2 miWSW (250°)8.1 mphMostly Cloudy
1:50 PM66.2 °F59.0 °F78 %30.27 in6.2 miWSW (250°)10.4 mphMostly Cloudy
2:20 PM68.0 °F59.0 °F73 %30.27 in6.2 miWSW (250°)10.4 mphMostly Cloudy
2:50 PM66.2 °F57.2 °F73 %30.27 in6.2 miWest (270°)12.7 mphPartly Cloudy
3:20 PM66.2 °F59.0 °F78 %30.27 in6.2 miWSW (250°)11.5 mphMostly Cloudy
3:50 PM63.0 °F60.0 °F87 %30.28 in3.0 miWest (270°)10.4 mphRainLight Rain Showers
3:50 PM62.6 °F60.8 °F94 %30.27 inWest (270°)10.4 mphRainLight Rain Showers
4:20 PM62.6 °F60.8 °F94 %30.27 in5.0 miWest (260°)6.9 mphRainLight Rain Showers
4:50 PM62.6 °F60.8 °F94 %30.27 in6.2 miWSW (250°)9.2 mphRainLight Rain
5:20 PM62.6 °F59.0 °F88 %30.27 in6.2 miWSW (250°)6.9 mphScattered Clouds
5:50 PM62.6 °F59.0 °F88 %30.27 in6.2 miWSW (240°)5.8 mphMostly Cloudy
6:20 PM62.6 °F59.0 °F88 %30.27 in6.2 miWSW (240°)5.8 mphMostly Cloudy
6:50 PM62.6 °F59.0 °F88 %30.27 in6.2 miWSW (250°)6.9 mphMostly Cloudy
6:50 PM62.0 °F60.0 °F89 %30.28 in9.0 miWSW (250°)6.9 mphScattered Clouds
7:20 PM62.6 °F59.0 °F88 %30.27 in6.2 miWSW (250°)10.4 mphMostly Cloudy
7:50 PM62.6 °F59.0 °F88 %30.27 in6.2 miWest (260°)10.4 mphMostly Cloudy
8:20 PM62.6 °F59.0 °F88 %30.27 in6.2 miWest (260°)8.1 mphMostly Cloudy
8:50 PM60.8 °F59.0 °F94 %30.27 in6.2 miWest (260°)6.9 mphMostly Cloudy
9:20 PM60.8 °F59.0 °F94 %30.27 in6.2 miWSW (250°)6.9 mphScattered Clouds
9:50 PM60.8 °F59.0 °F94 %30.27 in6.2 miWest (270°)5.8 mphMostly Cloudy
9:50 PM60.0 °F59.0 °F96 %30.30 in6.0 miWest (270°)5.8 mphMist
10:20 PM60.8 °F59.0 °F94 %30.27 in6.2 miWest (280°)5.8 mphMostly Cloudy
10:50 PM60.8 °F59.0 °F94 %30.27 in6.2 miWest (280°)6.9 mphMostly Cloudy
11:20 PM59.0 °F57.2 °F94 %30.27 in6.2 miNW (320°)8.1 mphMostly Cloudy
11:50 PM59.0 °F55.4 °F88 %30.27 in6.2 miNW (320°)9.2 mphMostly Cloudy
Hourly data recorded from EGHH, located miles away from Newtown, England







STORIES FROM OUR PARTNERS